Private Wetterstation Wechselburg
Wetterdaten: Montag, 11.04.2011
Datum Zeit Temp. +2m Bodentemp. Temp.+5cm Temp. Wind Windchill X Diff Temp. Feuchte +2m Feuchte +5cm Sonnenschein Luftdruck Regen Wind Richtung Richtung Sonnenschein UV Taupunkt Windchill Windben
11.04.2011 00:00 7,6 C 13,6 C 6,3 C 6,5 C 4,3 C 0,0 C 74 % 80 % 0 % 1024,5 hPa 0,0 l/m 0,0 km/h (0 Bft) O-SO 112 0 min 0,0 UV-I 3,3 C 4,3 C 0,0 km/h (0 Bft)
11.04.2011 00:10 7,6 C 13,6 C 6,1 C 6,5 C 4,2 C 0,0 C 76 % 81 % 0 % 1024,5 hPa 0,0 l/m 0,0 km/h (0 Bft) N 0 0 min 0,0 UV-I 3,6 C 4,2 C 0,0 km/h (0 Bft)
11.04.2011 00:15 7,5 C 13,6 C 6,0 C 6,3 C 4,0 C 0,0 C 76 % 81 % 0 % 1024,4 hPa 0,0 l/m 0,0 km/h (0 Bft) S-SO 157 0 min 0,0 UV-I 3,5 C 4,0 C 0,0 km/h (0 Bft)
11.04.2011 00:20 7,3 C 13,6 C 5,9 C 6,2 C 3,9 C 0,0 C 76 % 81 % 0 % 1024,4 hPa 0,0 l/m 0,0 km/h (0 Bft) W-SW 247 0 min 0,0 UV-I 3,4 C 3,9 C 0,0 km/h (0 Bft)
11.04.2011 00:25 7,3 C 13,6 C 5,8 C 6,1 C 3,8 C 0,0 C 76 % 81 % 0 % 1024,4 hPa 0,0 l/m 0,0 km/h (0 Bft) SO 135 0 min 0,0 UV-I 3,4 C 3,8 C 0,0 km/h (0 Bft)
11.04.2011 00:30 7,2 C 13,6 C 5,9 C 6,1 C 3,8 C 0,0 C 76 % 81 % 0 % 1024,4 hPa 0,0 l/m 0,0 km/h (0 Bft) SO 135 0 min 0,0 UV-I 3,3 C 3,8 C 0,0 km/h (0 Bft)
11.04.2011 00:35 7,2 C 13,6 C 5,9 C 6,0 C 3,7 C 0,0 C 76 % 81 % 0 % 1024,6 hPa 0,0 l/m 0,0 km/h (0 Bft) W-SW 247 0 min 0,0 UV-I 3,3 C 3,7 C 0,0 km/h (0 Bft)
11.04.2011 00:40 7,1 C 13,6 C 5,8 C 5,9 C 3,6 C 0,0 C 76 % 81 % 0 % 1024,6 hPa 0,0 l/m 0,0 km/h (0 Bft) W-SW 247 0 min 0,0 UV-I 3,2 C 3,6 C 0,0 km/h (0 Bft)
11.04.2011 00:45 7,1 C 13,5 C 5,6 C 5,9 C 3,4 C 0,0 C 77 % 81 % 0 % 1024,6 hPa 0,0 l/m 0,2 km/h (0 Bft) SW 225 0 min 0,0 UV-I 3,3 C 3,4 C 2,1 km/h (1 Bft)
11.04.2011 00:50 7,1 C 13,5 C 5,4 C 5,9 C 3,5 C 0,0 C 77 % 82 % 0 % 1024,6 hPa 0,0 l/m 0,5 km/h (0 Bft) S 180 0 min 0,0 UV-I 3,3 C 3,5 C 0,0 km/h (0 Bft)
11.04.2011 00:55 6,9 C 13,5 C 5,5 C 5,8 C 3,5 C 0,0 C 76 % 82 % 0 % 1024,4 hPa 0,0 l/m 0,5 km/h (0 Bft) O-NO 67 0 min 0,0 UV-I 3,0 C 3,5 C 0,0 km/h (0 Bft)
11.04.2011 01:00 6,7 C 13,5 C 5,3 C 5,6 C 3,5 C 0,0 C 77 % 82 % 0 % 1024,4 hPa 0,0 l/m 0,0 km/h (0 Bft) O-NO 67 0 min 0,0 UV-I 3,0 C 3,5 C 0,0 km/h (0 Bft)
11.04.2011 01:09 6,7 C 13,4 C 5,3 C 5,6 C 3,4 C 0,0 C 78 % 83 % 0 % 1024,4 hPa 0,0 l/m 0,0 km/h (0 Bft) N 0 0 min 0,0 UV-I 3,1 C 3,4 C 0,0 km/h (0 Bft)
11.04.2011 01:15 6,7 C 13,4 C 5,3 C 5,6 C 3,3 C 0,0 C 77 % 83 % 0 % 1024,5 hPa 0,0 l/m 0,0 km/h (0 Bft) W 270 0 min 0,0 UV-I 3,0 C 3,3 C 0,0 km/h (0 Bft)
11.04.2011 01:20 6,6 C 13,4 C 5,3 C 5,5 C 3,3 C 0,0 C 78 % 83 % 0 % 1024,5 hPa 0,0 l/m 0,0 km/h (0 Bft) W 270 0 min 0,0 UV-I 3,0 C 3,3 C 0,0 km/h (0 Bft)
11.04.2011 01:25 6,7 C 13,4 C 5,1 C 5,6 C 3,3 C 0,0 C 78 % 83 % 0 % 1024,5 hPa 0,0 l/m 0,0 km/h (0 Bft) SW 225 0 min 0,0 UV-I 3,1 C 3,3 C 0,0 km/h (0 Bft)
11.04.2011 01:30 6,6 C 13,4 C 5,1 C 5,5 C 3,3 C 0,0 C 78 % 83 % 0 % 1024,5 hPa 0,0 l/m 0,0 km/h (0 Bft) S 180 0 min 0,0 UV-I 3,0 C 3,3 C 0,0 km/h (0 Bft)
11.04.2011 01:35 6,5 C 13,4 C 5,1 C 5,4 C 3,1 C 0,0 C 78 % 83 % 0 % 1024,4 hPa 0,0 l/m 0,0 km/h (0 Bft) W-SW 247 0 min 0,0 UV-I 2,9 C 3,1 C 0,0 km/h (0 Bft)
11.04.2011 01:40 6,5 C 13,4 C 4,9 C 5,4 C 3,1 C 0,0 C 78 % 83 % 0 % 1024,4 hPa 0,0 l/m 0,2 km/h (0 Bft) S 180 0 min 0,0 UV-I 2,9 C 3,1 C 0,0 km/h (0 Bft)
11.04.2011 01:45 6,4 C 13,4 C 4,9 C 5,3 C 3,1 C 0,0 C 78 % 83 % 0 % 1024,4 hPa 0,0 l/m 0,2 km/h (0 Bft) S-SW 202 0 min 0,0 UV-I 2,8 C 3,1 C 0,0 km/h (0 Bft)
11.04.2011 01:50 6,3 C 13,3 C 4,9 C 5,2 C 2,9 C 0,0 C 78 % 83 % 0 % 1024,4 hPa 0,0 l/m 0,0 km/h (0 Bft) SW 225 0 min 0,0 UV-I 2,8 C 2,9 C 0,0 km/h (0 Bft)
11.04.2011 01:55 6,3 C 13,3 C 4,8 C 5,2 C 2,9 C 0,0 C 78 % 83 % 0 % 1024,4 hPa 0,0 l/m 0,0 km/h (0 Bft) SW 225 0 min 0,0 UV-I 2,8 C 2,9 C 0,0 km/h (0 Bft)
11.04.2011 02:00 6,3 C 13,3 C 4,7 C 5,2 C 2,9 C 0,0 C 79 % 84 % 0 % 1024,4 hPa 0,0 l/m 0,2 km/h (0 Bft) S 180 0 min 0,0 UV-I 2,9 C 2,9 C 0,0 km/h (0 Bft)
11.04.2011 02:09 6,2 C 13,3 C 4,9 C 5,1 C 2,9 C 0,0 C 79 % 84 % 0 % 1024,4 hPa 0,0 l/m 0,0 km/h (0 Bft) N 0 0 min 0,0 UV-I 2,8 C 2,9 C 0,0 km/h (0 Bft)
11.04.2011 02:15 6,1 C 13,3 C 4,9 C 5,0 C 2,9 C 0,0 C 79 % 84 % 0 % 1023,9 hPa 0,0 l/m 0,0 km/h (0 Bft) NO 45 0 min 0,0 UV-I 2,7 C 2,9 C 0,0 km/h (0 Bft)
11.04.2011 02:20 5,9 C 13,3 C 4,7 C 4,9 C 2,9 C 0,0 C 79 % 84 % 0 % 1023,9 hPa 0,0 l/m 0,0 km/h (0 Bft) NO 45 0 min 0,0 UV-I 2,5 C 2,9 C 0,0 km/h (0 Bft)
11.04.2011 02:25 5,9 C 13,3 C 4,7 C 4,9 C 2,8 C 0,0 C 80 % 84 % 0 % 1023,9 hPa 0,0 l/m 0,0 km/h (0 Bft) NO 45 0 min 0,0 UV-I 2,7 C 2,8 C 0,0 km/h (0 Bft)
11.04.2011 02:30 6,0 C 13,3 C 4,7 C 4,9 C 2,6 C 0,0 C 80 % 84 % 0 % 1023,9 hPa 0,0 l/m 0,0 km/h (0 Bft) NO 45 0 min 0,0 UV-I 2,8 C 2,6 C 0,0 km/h (0 Bft)
11.04.2011 02:35 6,0 C 13,3 C 4,7 C 4,8 C 2,5 C 0,0 C 80 % 84 % 0 % 1024,2 hPa 0,0 l/m 0,0 km/h (0 Bft) NO 45 0 min 0,0 UV-I 2,8 C 2,5 C 0,0 km/h (0 Bft)
11.04.2011 02:40 5,9 C 13,3 C 4,6 C 4,8 C 2,5 C 0,0 C 80 % 84 % 0 % 1024,2 hPa 0,0 l/m 0,0 km/h (0 Bft) S-SW 202 0 min 0,0 UV-I 2,7 C 2,5 C 0,0 km/h (0 Bft)
11.04.2011 02:45 5,9 C 13,3 C 4,5 C 4,8 C 2,6 C 0,0 C 80 % 84 % 0 % 1024,2 hPa 0,0 l/m 0,0 km/h (0 Bft) S-SW 202 0 min 0,0 UV-I 2,7 C 2,6 C 0,0 km/h (0 Bft)
11.04.2011 02:50 5,9 C 13,1 C 4,4 C 4,8 C 2,6 C 0,0 C 80 % 84 % 0 % 1024,2 hPa 0,0 l/m 0,0 km/h (0 Bft) W-SW 247 0 min 0,0 UV-I 2,7 C 2,6 C 0,0 km/h (0 Bft)
11.04.2011 02:55 5,9 C 13,1 C 4,5 C 4,8 C 2,6 C 0,0 C 80 % 84 % 0 % 1024,4 hPa 0,0 l/m 0,0 km/h (0 Bft) W-SW 247 0 min 0,0 UV-I 2,7 C 2,6 C 0,0 km/h (0 Bft)
11.04.2011 03:00 5,8 C 13,1 C 4,4 C 4,7 C 2,6 C 0,0 C 80 % 85 % 0 % 1024,4 hPa 0,0 l/m 0,0 km/h (0 Bft) NO 45 0 min 0,0 UV-I 2,6 C 2,6 C 0,0 km/h (0 Bft)
11.04.2011 03:09 5,6 C 13,1 C 4,3 C 4,6 C 2,5 C 0,0 C 80 % 85 % 0 % 1024,4 hPa 0,0 l/m 0,2 km/h (0 Bft) N 0 0 min 0,0 UV-I 2,4 C 2,5 C 0,0 km/h (0 Bft)
11.04.2011 03:15 5,6 C 13,1 C 4,3 C 4,5 C 2,4 C 0,0 C 80 % 85 % 0 % 1024,1 hPa 0,0 l/m 0,2 km/h (0 Bft) SW 225 0 min 0,0 UV-I 2,4 C 2,4 C 0,0 km/h (0 Bft)
11.04.2011 03:20 5,7 C 13,0 C 4,3 C 4,6 C 2,4 C 0,0 C 81 % 85 % 0 % 1024,1 hPa 0,0 l/m 0,5 km/h (0 Bft) SW 225 0 min 0,0 UV-I 2,7 C 2,4 C 1,8 km/h (1 Bft)
11.04.2011 03:25 5,6 C 13,1 C 4,1 C 4,5 C 2,4 C 0,0 C 80 % 85 % 0 % 1024,1 hPa 0,0 l/m 0,8 km/h (0 Bft) S 180 0 min 0,0 UV-I 2,4 C 2,4 C 2,3 km/h (1 Bft)
11.04.2011 03:30 5,4 C 13,0 C 4,1 C 4,4 C 2,4 C 0,0 C 81 % 85 % 0 % 1024,1 hPa 0,0 l/m 0,5 km/h (0 Bft) O-SO 112 0 min 0,0 UV-I 2,4 C 2,4 C 0,0 km/h (0 Bft)
11.04.2011 03:35 5,5 C 13,0 C 4,2 C 4,4 C 2,3 C 0,0 C 81 % 86 % 0 % 1024,1 hPa 0,0 l/m 0,0 km/h (0 Bft) S-SO 157 0 min 0,0 UV-I 2,5 C 2,3 C 0,0 km/h (0 Bft)
11.04.2011 03:40 5,5 C 13,0 C 4,2 C 4,4 C 2,2 C 0,0 C 81 % 86 % 0 % 1024,1 hPa 0,0 l/m 0,0 km/h (0 Bft) S-SW 202 0 min 0,0 UV-I 2,5 C 2,2 C 0,0 km/h (0 Bft)
11.04.2011 03:45 5,5 C 13,0 C 4,1 C 4,4 C 2,2 C 0,0 C 81 % 85 % 0 % 1024,1 hPa 0,0 l/m 0,0 km/h (0 Bft) W-SW 247 0 min 0,0 UV-I 2,5 C 2,2 C 0,0 km/h (0 Bft)
11.04.2011 03:50 5,3 C 13,0 C 4,0 C 4,2 C 2,1 C 0,0 C 81 % 85 % 0 % 1024,1 hPa 0,0 l/m 0,0 km/h (0 Bft) W-SW 247 0 min 0,0 UV-I 2,3 C 2,1 C 0,0 km/h (0 Bft)
11.04.2011 03:55 5,2 C 12,9 C 3,9 C 4,2 C 2,1 C 0,0 C 81 % 85 % 0 % 1023,9 hPa 0,0 l/m 0,3 km/h (0 Bft) S-SW 202 0 min 0,0 UV-I 2,2 C 2,1 C 2,3 km/h (1 Bft)
11.04.2011 04:00 5,2 C 12,9 C 3,9 C 4,2 C 2,1 C 0,0 C 81 % 86 % 0 % 1023,9 hPa 0,0 l/m 0,3 km/h (0 Bft) SW 225 0 min 0,0 UV-I 2,2 C 2,1 C 0,0 km/h (0 Bft)
11.04.2011 04:09 5,1 C 12,9 C 3,9 C 4,1 C 2,1 C 0,0 C 81 % 86 % 0 % 1023,9 hPa 0,0 l/m 0,0 km/h (0 Bft) N 0 0 min 0,0 UV-I 2,1 C 2,1 C 0,0 km/h (0 Bft)
11.04.2011 04:15 5,2 C 12,9 C 3,9 C 4,2 C 2,1 C 0,0 C 81 % 86 % 0 % 1023,9 hPa 0,0 l/m 0,0 km/h (0 Bft) SW 225 0 min 0,0 UV-I 2,2 C 2,1 C 0,0 km/h (0 Bft)
11.04.2011 04:20 5,1 C 12,9 C 3,9 C 4,1 C 2,0 C 0,0 C 81 % 86 % 0 % 1023,9 hPa 0,0 l/m 0,0 km/h (0 Bft) SW 225 0 min 0,0 UV-I 2,1 C 2,0 C 1,6 km/h (1 Bft)
11.04.2011 04:25 5,2 C 12,8 C 3,7 C 4,2 C 2,1 C 0,0 C 82 % 86 % 0 % 1023,9 hPa 0,0 l/m 0,6 km/h (0 Bft) S-SO 157 0 min 0,0 UV-I 2,4 C 2,1 C 0,0 km/h (0 Bft)
11.04.2011 04:30 5,2 C 12,8 C 3,7 C 4,2 C 2,1 C 0,0 C 81 % 86 % 0 % 1023,9 hPa 0,0 l/m 0,6 km/h (0 Bft) S-SO 157 0 min 0,0 UV-I 2,2 C 2,1 C 0,0 km/h (0 Bft)
11.04.2011 04:35 5,1 C 12,8 C 3,9 C 4,1 C 2,0 C 0,0 C 81 % 86 % 0 % 1023,8 hPa 0,0 l/m 0,0 km/h (0 Bft) SW 225 0 min 0,0 UV-I 2,1 C 2,0 C 0,0 km/h (0 Bft)
11.04.2011 04:40 5,1 C 12,8 C 3,7 C 4,1 C 2,1 C 0,0 C 82 % 86 % 0 % 1023,8 hPa 0,0 l/m 0,3 km/h (0 Bft) S-SW 202 0 min 0,0 UV-I 2,3 C 2,1 C 0,0 km/h (0 Bft)
11.04.2011 04:45 5,1 C 12,8 C 3,7 C 4,1 C 2,1 C 0,0 C 82 % 86 % 0 % 1023,8 hPa 0,0 l/m 0,3 km/h (0 Bft) SW 225 0 min 0,0 UV-I 2,3 C 2,1 C 0,0 km/h (0 Bft)
11.04.2011 04:50 5,1 C 12,8 C 3,7 C 4,1 C 2,1 C 0,0 C 82 % 87 % 0 % 1023,8 hPa 0,0 l/m 0,2 km/h (0 Bft) S 180 0 min 0,0 UV-I 2,3 C 2,1 C 0,0 km/h (0 Bft)
11.04.2011 04:55 5,1 C 12,7 C 3,8 C 4,1 C 2,1 C 0,0 C 82 % 87 % 0 % 1023,9 hPa 0,0 l/m 0,2 km/h (0 Bft) S 180 0 min 0,0 UV-I 2,3 C 2,1 C 0,0 km/h (0 Bft)
11.04.2011 05:00 5,1 C 12,7 C 3,8 C 4,1 C 2,1 C 0,0 C 82 % 87 % 0 % 1023,9 hPa 0,0 l/m 0,0 km/h (0 Bft) S 180 0 min 0,0 UV-I 2,3 C 2,1 C 0,0 km/h (0 Bft)
11.04.2011 05:09 5,1 C 12,7 C 3,9 C 4,2 C 2,3 C 0,0 C 82 % 87 % 0 % 1023,9 hPa 0,0 l/m 0,0 km/h (0 Bft) N 0 0 min 0,0 UV-I 2,3 C 2,3 C 0,0 km/h (0 Bft)
11.04.2011 05:15 5,1 C 12,7 C 3,8 C 4,2 C 2,3 C 0,0 C 82 % 86 % 0 % 1023,8 hPa 0,0 l/m 0,0 km/h (0 Bft) S 180 0 min 0,0 UV-I 2,3 C 2,3 C 0,0 km/h (0 Bft)
11.04.2011 05:20 5,1 C 12,7 C 3,9 C 4,1 C 2,2 C 0,0 C 82 % 87 % 0 % 1023,8 hPa 0,0 l/m 0,0 km/h (0 Bft) S 180 0 min 0,0 UV-I 2,3 C 2,2 C 0,0 km/h (0 Bft)
11.04.2011 05:25 5,0 C 12,7 C 3,9 C 4,1 C 2,3 C 0,0 C 82 % 87 % 0 % 1023,8 hPa 0,0 l/m 0,0 km/h (0 Bft) S 180 0 min 0,0 UV-I 2,2 C 2,3 C 0,0 km/h (0 Bft)
11.04.2011 05:30 5,1 C 12,6 C 3,9 C 4,2 C 2,3 C 0,0 C 82 % 87 % 0 % 1023,8 hPa 0,0 l/m 0,0 km/h (0 Bft) O 90 0 min 0,0 UV-I 2,3 C 2,3 C 0,0 km/h (0 Bft)
11.04.2011 05:35 5,1 C 12,6 C 3,8 C 4,3 C 2,6 C 0,0 C 82 % 87 % 0 % 1023,6 hPa 0,0 l/m 0,0 km/h (0 Bft) O-NO 67 0 min 0,0 UV-I 2,3 C 2,6 C 0,0 km/h (0 Bft)
11.04.2011 05:40 5,1 C 12,6 C 3,8 C 4,3 C 2,6 C 0,0 C 83 % 86 % 0 % 1023,6 hPa 0,0 l/m 0,0 km/h (0 Bft) O-NO 67 0 min 0,0 UV-I 2,5 C 2,6 C 0,0 km/h (0 Bft)
11.04.2011 05:45 5,1 C 12,6 C 3,8 C 4,3 C 2,6 C 0,0 C 82 % 87 % 0 % 1023,6 hPa 0,0 l/m 0,0 km/h (0 Bft) O-NO 67 0 min 0,0 UV-I 2,3 C 2,6 C 0,0 km/h (0 Bft)
11.04.2011 05:50 5,1 C 12,6 C 3,9 C 4,3 C 2,6 C 0,0 C 83 % 87 % 0 % 1023,6 hPa 0,0 l/m 0,0 km/h (0 Bft) O-NO 67 0 min 0,0 UV-I 2,5 C 2,6 C 0,0 km/h (0 Bft)
11.04.2011 05:55 5,1 C 12,6 C 3,9 C 4,3 C 2,6 C 0,0 C 82 % 87 % 0 % 1023,6 hPa 0,0 l/m 0,0 km/h (0 Bft) O-NO 67 0 min 0,0 UV-I 2,3 C 2,6 C 0,0 km/h (0 Bft)
11.04.2011 06:00 5,1 C 12,6 C 3,9 C 4,3 C 2,6 C 0,0 C 83 % 87 % 0 % 1023,6 hPa 0,0 l/m 0,0 km/h (0 Bft) O-NO 67 0 min 0,0 UV-I 2,5 C 2,6 C 0,0 km/h (0 Bft)
11.04.2011 06:09 4,9 C 12,5 C 3,9 C 4,1 C 2,5 C 0,0 C 83 % 87 % 0 % 1023,6 hPa 0,0 l/m 0,0 km/h (0 Bft) N 0 0 min 0,0 UV-I 2,3 C 2,5 C 0,0 km/h (0 Bft)
11.04.2011 06:15 4,9 C 12,5 C 3,8 C 4,1 C 2,4 C 0,0 C 83 % 86 % 0 % 1023,2 hPa 0,0 l/m 0,2 km/h (0 Bft) SW 225 0 min 0,0 UV-I 2,3 C 2,4 C 1,8 km/h (1 Bft)
11.04.2011 06:20 4,8 C 12,5 C 3,7 C 4,0 C 2,3 C 0,0 C 83 % 86 % 0 % 1023,2 hPa 0,0 l/m 0,2 km/h (0 Bft) S 180 0 min 0,0 UV-I 2,2 C 2,3 C 0,0 km/h (0 Bft)
11.04.2011 06:25 4,9 C 12,5 C 3,6 C 4,0 C 2,1 C 0,0 C 83 % 87 % 0 % 1023,2 hPa 0,0 l/m 0,2 km/h (0 Bft) S 180 0 min 0,0 UV-I 2,3 C 2,1 C 0,0 km/h (0 Bft)
11.04.2011 06:30 4,7 C 12,5 C 3,7 C 3,8 C 2,1 C 0,0 C 82 % 87 % 0 % 1023,2 hPa 0,0 l/m 0,0 km/h (0 Bft) S 180 0 min 0,0 UV-I 1,9 C 2,1 C 0,0 km/h (0 Bft)
11.04.2011 06:35 4,6 C 12,4 C 3,7 C 3,8 C 2,3 C 0,0 C 83 % 87 % 0 % 1023,1 hPa 0,0 l/m 0,0 km/h (0 Bft) O-NO 67 0 min 0,0 UV-I 2,0 C 2,3 C 0,0 km/h (0 Bft)
11.04.2011 06:40 4,7 C 12,4 C 3,7 C 3,9 C 2,4 C 0,0 C 83 % 87 % 0 % 1023,1 hPa 0,0 l/m 0,0 km/h (0 Bft) O-NO 67 0 min 0,0 UV-I 2,1 C 2,4 C 0,0 km/h (0 Bft)
11.04.2011 06:45 4,8 C 12,4 C 3,7 C 4,0 C 2,5 C 0,0 C 83 % 87 % 0 % 1023,1 hPa 0,0 l/m 0,0 km/h (0 Bft) O-NO 67 0 min 0,0 UV-I 2,2 C 2,5 C 0,0 km/h (0 Bft)
11.04.2011 06:50 4,8 C 12,4 C 3,7 C 4,1 C 2,6 C 0,0 C 83 % 87 % 0 % 1023,1 hPa 0,0 l/m 0,0 km/h (0 Bft) O-NO 67 0 min 0,0 UV-I 2,2 C 2,6 C 0,0 km/h (0 Bft)
11.04.2011 06:55 4,8 C 12,4 C 3,6 C 4,0 C 2,5 C 0,0 C 83 % 87 % 0 % 1023,5 hPa 0,0 l/m 0,0 km/h (0 Bft) O-NO 67 0 min 0,0 UV-I 2,2 C 2,5 C 0,0 km/h (0 Bft)
11.04.2011 07:00 4,8 C 12,4 C 3,6 C 4,0 C 2,5 C 0,0 C 83 % 87 % 0 % 1023,5 hPa 0,0 l/m 0,0 km/h (0 Bft) NO 45 0 min 0,0 UV-I 2,2 C 2,5 C 0,0 km/h (0 Bft)
11.04.2011 07:09 4,9 C 12,4 C 3,8 C 4,2 C 2,7 C 0,0 C 83 % 87 % 0 % 1023,5 hPa 0,0 l/m 0,0 km/h (0 Bft) N 0 0 min 0,0 UV-I 2,3 C 2,7 C 0,0 km/h (0 Bft)
11.04.2011 07:15 5,1 C 12,3 C 3,8 C 4,3 C 2,8 C 0,0 C 83 % 87 % 0 % 1023,5 hPa 0,0 l/m 0,0 km/h (0 Bft) SW 225 0 min 0,0 UV-I 2,5 C 2,8 C 0,0 km/h (0 Bft)
11.04.2011 07:20 5,1 C 12,3 C 3,8 C 4,4 C 2,9 C 0,0 C 83 % 87 % 0 % 1023,5 hPa 0,0 l/m 0,0 km/h (0 Bft) W-SW 247 0 min 0,0 UV-I 2,5 C 2,9 C 0,0 km/h (0 Bft)
11.04.2011 07:25 5,2 C 12,3 C 3,8 C 4,5 C 3,0 C 0,0 C 83 % 87 % 0 % 1023,5 hPa 0,0 l/m 0,0 km/h (0 Bft) SW 225 0 min 0,0 UV-I 2,6 C 3,0 C 0,0 km/h (0 Bft)
11.04.2011 07:30 5,3 C 12,3 C 3,7 C 4,5 C 3,0 C 0,0 C 82 % 87 % 0 % 1023,5 hPa 0,0 l/m 0,0 km/h (0 Bft) W 270 0 min 0,0 UV-I 2,5 C 3,0 C 0,0 km/h (0 Bft)
11.04.2011 07:35 5,4 C 12,3 C 3,7 C 4,6 C 3,0 C 0,0 C 82 % 88 % 0 % 1023,5 hPa 0,0 l/m 0,2 km/h (0 Bft) SW 225 0 min 0,0 UV-I 2,6 C 3,0 C 1,9 km/h (1 Bft)
11.04.2011 07:40 5,5 C 12,3 C 3,6 C 4,7 C 3,1 C 0,0 C 82 % 87 % 0 % 1023,5 hPa 0,0 l/m 0,3 km/h (0 Bft) SW 225 0 min 0,0 UV-I 2,7 C 3,1 C 0,0 km/h (0 Bft)
11.04.2011 07:45 5,5 C 12,3 C 3,9 C 4,8 C 3,3 C 0,0 C 82 % 88 % 0 % 1023,5 hPa 0,0 l/m 0,3 km/h (0 Bft) SW 225 0 min 0,0 UV-I 2,7 C 3,3 C 0,0 km/h (0 Bft)
11.04.2011 07:50 5,6 C 12,2 C 3,9 C 4,9 C 3,5 C 0,0 C 82 % 88 % 0 % 1023,5 hPa 0,0 l/m 0,0 km/h (0 Bft) SW 225 0 min 0,0 UV-I 2,8 C 3,5 C 0,0 km/h (0 Bft)
11.04.2011 07:55 5,9 C 12,2 C 4,0 C 5,2 C 3,9 C 0,0 C 82 % 88 % 0 % 1023,5 hPa 0,0 l/m 0,0 km/h (0 Bft) SW 225 0 min 0,0 UV-I 3,1 C 3,9 C 0,0 km/h (0 Bft)
11.04.2011 08:00 6,0 C 12,2 C 4,0 C 5,5 C 4,4 C 0,0 C 82 % 88 % 0 % 1023,5 hPa 0,0 l/m 0,0 km/h (0 Bft) SW 225 0 min 0,0 UV-I 3,2 C 4,4 C 0,0 km/h (0 Bft)
11.04.2011 08:09 6,7 C 12,0 C 4,3 C 6,5 C 6,2 C 0,0 C 81 % 88 % 0 % 1023,5 hPa 0,0 l/m 0,0 km/h (0 Bft) N 0 0 min 0,0 UV-I 3,7 C 6,2 C 0,0 km/h (0 Bft)
11.04.2011 08:15 6,8 C 12,0 C 4,3 C 7,2 C 7,2 C 0,4 C 80 % 88 % 11 % 1023,6 hPa 0,0 l/m 0,0 km/h (0 Bft) SW 225 0 min 0,0 UV-I 3,6 C 7,2 C 0,0 km/h (0 Bft)
11.04.2011 08:20 6,9 C 12,0 C 4,8 C 8,0 C 8,0 C 1,1 C 80 % 88 % 29 % 1023,6 hPa 0,0 l/m 0,0 km/h (0 Bft) SW 225 0 min 0,0 UV-I 3,7 C 8,0 C 0,0 km/h (0 Bft)
11.04.2011 08:25 7,2 C 11,9 C 5,2 C 9,1 C 9,1 C 1,9 C 80 % 88 % 50 % 1023,6 hPa 0,0 l/m 0,0 km/h (0 Bft) SW 225 0 min 0,1 UV-I 4,0 C 9,1 C 0,0 km/h (0 Bft)
11.04.2011 08:30 7,5 C 11,9 C 5,5 C 9,8 C 9,8 C 2,3 C 80 % 88 % 61 % 1023,6 hPa 0,0 l/m 0,0 km/h (0 Bft) S-SW 202 0 min 0,1 UV-I 4,3 C 9,8 C 0,0 km/h (0 Bft)
11.04.2011 08:35 7,6 C 11,9 C 5,7 C 10,5 C 10,5 C 2,9 C 80 % 87 % 76 % 1023,4 hPa 0,0 l/m 0,2 km/h (0 Bft) S 180 0 min 0,1 UV-I 4,4 C 10,5 C 0,0 km/h (0 Bft)
11.04.2011 08:40 7,8 C 11,9 C 5,9 C 11,1 C 11,1 C 3,3 C 80 % 87 % 87 % 1023,4 hPa 0,0 l/m 0,2 km/h (0 Bft) SW 225 5 min 0,1 UV-I 4,6 C 11,1 C 0,0 km/h (0 Bft)
11.04.2011 08:45 8,0 C 11,8 C 6,4 C 11,6 C 11,6 C 3,6 C 80 % 87 % 95 % 1023,4 hPa 0,0 l/m 0,2 km/h (0 Bft) S-SW 202 5 min 0,2 UV-I 4,8 C 11,6 C 0,0 km/h (0 Bft)
11.04.2011 08:50 8,3 C 11,8 C 6,7 C 12,1 C 12,1 C 3,8 C 79 % 87 % 100 % 1023,4 hPa 0,0 l/m 0,2 km/h (0 Bft) O-NO 67 5 min 0,2 UV-I 4,9 C 12,1 C 0,0 km/h (0 Bft)
11.04.2011 08:55 8,7 C 11,6 C 7,5 C 13,1 C 13,1 C 4,4 C 78 % 86 % 100 % 1023,1 hPa 0,0 l/m 0,0 km/h (0 Bft) O-SO 112 5 min 0,2 UV-I 5,1 C 13,1 C 0,0 km/h (0 Bft)
11.04.2011 09:00 8,8 C 11,6 C 7,9 C 13,5 C 13,5 C 4,7 C 77 % 85 % 100 % 1023,1 hPa 0,0 l/m 0,0 km/h (0 Bft) S 180 5 min 0,2 UV-I 5,0 C 13,5 C 0,0 km/h (0 Bft)
11.04.2011 09:09 9,4 C 11,6 C 8,5 C 13,6 C 13,6 C 4,2 C 76 % 82 % 100 % 1023,1 hPa 0,0 l/m 0,6 km/h (0 Bft) N 0 9 min 0,2 UV-I 5,4 C 13,6 C 2,6 km/h (1 Bft)
11.04.2011 09:15 9,6 C 11,6 C 8,7 C 13,9 C 13,9 C 4,3 C 76 % 82 % 100 % 1023,1 hPa 0,0 l/m 0,6 km/h (0 Bft) S-SW 202 6 min 0,3 UV-I 5,6 C 13,9 C 4,0 km/h (1 Bft)
11.04.2011 09:20 9,7 C 11,6 C 9,1 C 14,4 C 14,4 C 4,7 C 76 % 81 % 100 % 1023,1 hPa 0,0 l/m 0,6 km/h (0 Bft) S-SW 202 5 min 0,3 UV-I 5,7 C 14,4 C 0,0 km/h (0 Bft)
11.04.2011 09:25 10,1 C 11,6 C 9,5 C 14,8 C 14,8 C 4,7 C 75 % 80 % 100 % 1023,1 hPa 0,0 l/m 0,5 km/h (0 Bft) S 180 5 min 0,4 UV-I 5,9 C 14,8 C 1,6 km/h (1 Bft)
11.04.2011 09:30 10,3 C 11,6 C 9,7 C 15,0 C 15,0 C 4,7 C 75 % 79 % 100 % 1023,1 hPa 0,0 l/m 0,6 km/h (0 Bft) S-SW 202 5 min 0,4 UV-I 6,1 C 15,0 C 1,8 km/h (1 Bft)
11.04.2011 09:35 10,5 C 11,6 C 10,1 C 15,0 C 15,0 C 4,5 C 75 % 79 % 100 % 1023,2 hPa 0,0 l/m 1,4 km/h (1 Bft) S-SW 202 5 min 0,4 UV-I 6,3 C 15,0 C 2,9 km/h (1 Bft)
11.04.2011 09:40 10,7 C 11,6 C 10,4 C 15,0 C 15,0 C 4,3 C 75 % 79 % 100 % 1023,2 hPa 0,0 l/m 1,3 km/h (1 Bft) S-SW 202 5 min 0,4 UV-I 6,5 C 15,0 C 2,9 km/h (1 Bft)
11.04.2011 09:45 11,0 C 11,6 C 10,9 C 15,1 C 15,1 C 4,1 C 74 % 76 % 100 % 1023,2 hPa 0,0 l/m 2,3 km/h (1 Bft) SO 135 5 min 0,6 UV-I 6,5 C 15,1 C 6,8 km/h (2 Bft)
11.04.2011 09:50 11,2 C 11,6 C 11,2 C 15,1 C 15,1 C 3,9 C 73 % 74 % 100 % 1023,2 hPa 0,0 l/m 2,9 km/h (1 Bft) S 180 5 min 0,6 UV-I 6,5 C 15,1 C 2,7 km/h (1 Bft)
11.04.2011 09:55 11,5 C 11,6 C 11,8 C 15,1 C 15,1 C 3,6 C 72 % 73 % 95 % 1022,8 hPa 0,0 l/m 2,6 km/h (1 Bft) S-SO 157 5 min 0,6 UV-I 6,6 C 15,1 C 7,4 km/h (2 Bft)
11.04.2011 10:00 11,7 C 11,6 C 11,8 C 15,1 C 15,1 C 3,4 C 71 % 73 % 89 % 1022,8 hPa 0,0 l/m 2,9 km/h (1 Bft) S 180 5 min 0,6 UV-I 6,6 C 15,1 C 4,5 km/h (1 Bft)
11.04.2011 10:10 12,2 C 11,6 C 12,7 C 15,5 C 15,5 C 3,3 C 70 % 70 % 87 % 1022,8 hPa 0,0 l/m 2,9 km/h (1 Bft) N 0 10 min 0,6 UV-I 6,9 C 15,5 C 8,7 km/h (2 Bft)
11.04.2011 10:15 12,4 C 11,6 C 12,7 C 15,9 C 15,9 C 3,5 C 69 % 70 % 92 % 1022,6 hPa 0,0 l/m 2,9 km/h (1 Bft) SO 135 5 min 0,7 UV-I 6,9 C 15,9 C 1,8 km/h (1 Bft)
11.04.2011 10:20 12,7 C 11,6 C 12,7 C 16,3 C 16,3 C 3,6 C 68 % 70 % 95 % 1022,6 hPa 0,0 l/m 2,7 km/h (1 Bft) NO 45 5 min 0,7 UV-I 6,9 C 16,3 C 3,1 km/h (1 Bft)
11.04.2011 10:25 13,1 C 11,6 C 13,5 C 16,5 C 16,5 C 3,4 C 66 % 66 % 89 % 1022,6 hPa 0,0 l/m 3,9 km/h (1 Bft) S-SW 202 5 min 0,7 UV-I 6,9 C 16,5 C 10,9 km/h (2 Bft)
11.04.2011 10:30 13,3 C 11,7 C 13,4 C 16,5 C 16,5 C 3,2 C 65 % 63 % 84 % 1022,6 hPa 0,0 l/m 4,2 km/h (1 Bft) S 180 0 min 0,7 UV-I 6,9 C 16,5 C 5,1 km/h (1 Bft)
11.04.2011 10:35 13,5 C 11,7 C 13,7 C 16,9 C 16,9 C 3,4 C 62 % 63 % 89 % 1022,8 hPa 0,0 l/m 3,2 km/h (1 Bft) O-NO 67 5 min 0,9 UV-I 6,4 C 16,9 C 2,1 km/h (1 Bft)
11.04.2011 10:40 13,7 C 11,7 C 13,7 C 16,9 C 16,9 C 3,2 C 62 % 62 % 84 % 1022,8 hPa 0,0 l/m 3,7 km/h (1 Bft) SW 225 0 min 0,9 UV-I 6,6 C 16,9 C 7,2 km/h (2 Bft)
11.04.2011 10:45 13,9 C 11,7 C 13,9 C 16,9 C 16,9 C 3,0 C 63 % 63 % 79 % 1022,8 hPa 0,0 l/m 4,0 km/h (1 Bft) S-SO 157 0 min 0,9 UV-I 7,0 C 16,9 C 4,8 km/h (1 Bft)
11.04.2011 10:50 14,0 C 11,7 C 13,9 C 16,7 C 16,7 C 2,7 C 62 % 62 % 71 % 1022,8 hPa 0,0 l/m 4,7 km/h (1 Bft) S 180 0 min 0,9 UV-I 6,8 C 16,7 C 7,2 km/h (2 Bft)
11.04.2011 10:55 14,0 C 11,7 C 14,0 C 16,5 C 16,5 C 2,5 C 62 % 62 % 66 % 1022,8 hPa 0,0 l/m 5,1 km/h (1 Bft) S 180 0 min 0,9 UV-I 6,8 C 16,5 C 4,5 km/h (1 Bft)
11.04.2011 11:00 14,3 C 11,8 C 14,0 C 16,6 C 16,6 C 2,3 C 62 % 62 % 61 % 1022,8 hPa 0,0 l/m 4,2 km/h (1 Bft) N 360 0 min 0,9 UV-I 7,1 C 16,6 C 1,6 km/h (1 Bft)
11.04.2011 11:10 14,5 C 11,8 C 14,3 C 16,8 C 16,8 C 2,3 C 61 % 63 % 61 % 1022,8 hPa 0,0 l/m 5,3 km/h (1 Bft) N 0 0 min 0,9 UV-I 7,1 C 16,8 C 10,6 km/h (2 Bft)
11.04.2011 11:15 14,8 C 11,7 C 14,3 C 16,9 C 16,9 C 2,1 C 60 % 63 % 55 % 1022,4 hPa 0,0 l/m 6,9 km/h (2 Bft) S-SW 202 0 min 1,0 UV-I 7,1 C 16,9 C 9,0 km/h (2 Bft)
11.04.2011 11:20 14,8 C 11,8 C 14,7 C 17,1 C 17,1 C 2,3 C 60 % 61 % 61 % 1022,4 hPa 0,0 l/m 7,1 km/h (2 Bft) SW 225 0 min 1,0 UV-I 7,1 C 17,1 C 12,1 km/h (2 Bft)
11.04.2011 11:25 15,0 C 11,8 C 14,7 C 17,2 C 17,2 C 2,2 C 59 % 61 % 58 % 1022,4 hPa 0,0 l/m 7,4 km/h (2 Bft) N-NO 22 0 min 1,1 UV-I 7,1 C 17,2 C 6,4 km/h (2 Bft)
11.04.2011 11:30 15,3 C 11,8 C 15,1 C 17,4 C 17,4 C 2,1 C 59 % 59 % 55 % 1022,4 hPa 0,0 l/m 6,1 km/h (2 Bft) SW 225 0 min 1,1 UV-I 7,3 C 17,4 C 5,8 km/h (2 Bft)
11.04.2011 11:35 15,5 C 11,9 C 15,4 C 18,0 C 18,0 C 2,5 C 58 % 59 % 66 % 1022,2 hPa 0,0 l/m 4,0 km/h (1 Bft) O-SO 112 0 min 1,2 UV-I 7,3 C 18,0 C 4,2 km/h (1 Bft)
11.04.2011 11:40 15,7 C 11,9 C 15,5 C 18,5 C 18,5 C 2,8 C 57 % 59 % 74 % 1022,2 hPa 0,0 l/m 3,7 km/h (1 Bft) S 180 0 min 1,2 UV-I 7,2 C 18,5 C 6,1 km/h (2 Bft)
11.04.2011 11:45 15,9 C 11,9 C 15,7 C 18,8 C 18,8 C 2,9 C 56 % 58 % 76 % 1022,2 hPa 0,0 l/m 3,2 km/h (1 Bft) SW 225 0 min 1,2 UV-I 7,1 C 18,8 C 8,2 km/h (2 Bft)
11.04.2011 11:50 15,8 C 11,9 C 15,8 C 18,8 C 18,8 C 3,0 C 55 % 57 % 79 % 1022,2 hPa 0,0 l/m 4,8 km/h (1 Bft) SW 225 0 min 1,2 UV-I 6,8 C 18,8 C 7,9 km/h (2 Bft)
11.04.2011 11:55 15,9 C 12,0 C 16,1 C 18,5 C 18,5 C 2,6 C 53 % 54 % 68 % 1022,2 hPa 0,0 l/m 8,0 km/h (2 Bft) SW 225 0 min 1,2 UV-I 6,3 C 18,5 C 14,8 km/h (3 Bft)
11.04.2011 12:00 16,0 C 12,0 C 16,3 C 18,3 C 18,3 C 2,3 C 53 % 53 % 61 % 1022,2 hPa 0,0 l/m 9,7 km/h (2 Bft) W-NW 292 0 min 1,2 UV-I 6,4 C 18,3 C 7,2 km/h (2 Bft)
11.04.2011 12:09 16,5 C 12,0 C 16,6 C 18,6 C 18,6 C 2,1 C 53 % 53 % 55 % 1022,2 hPa 0,0 l/m 7,4 km/h (2 Bft) N 0 0 min 1,3 UV-I 6,9 C 18,6 C 15,0 km/h (3 Bft)
11.04.2011 12:15 16,4 C 12,1 C 16,9 C 19,0 C 19,0 C 2,6 C 53 % 53 % 68 % 1022,1 hPa 0,0 l/m 6,4 km/h (2 Bft) S-SW 202 0 min 1,5 UV-I 6,8 C 19,0 C 7,7 km/h (2 Bft)
11.04.2011 12:20 16,7 C 12,1 C 17,3 C 19,5 C 19,5 C 2,8 C 53 % 54 % 74 % 1022,1 hPa 0,0 l/m 7,4 km/h (2 Bft) SW 225 0 min 1,5 UV-I 7,1 C 19,5 C 10,8 km/h (2 Bft)
11.04.2011 12:25 16,8 C 12,2 C 17,7 C 19,7 C 19,7 C 2,9 C 53 % 52 % 76 % 1022,1 hPa 0,0 l/m 9,2 km/h (2 Bft) SW 225 0 min 1,7 UV-I 7,2 C 19,7 C 18,3 km/h (3 Bft)
11.04.2011 12:30 16,8 C 12,2 C 18,0 C 19,9 C 19,9 C 3,1 C 53 % 51 % 82 % 1022,1 hPa 0,0 l/m 10,0 km/h (2 Bft) SO 135 0 min 1,7 UV-I 7,2 C 19,9 C 10,1 km/h (2 Bft)
11.04.2011 12:35 17,1 C 12,2 C 18,0 C 20,8 C 20,8 C 3,7 C 54 % 51 % 97 % 1021,7 hPa 0,0 l/m 5,6 km/h (1 Bft) S 180 5 min 1,9 UV-I 7,7 C 20,8 C 1,9 km/h (1 Bft)
11.04.2011 12:40 17,2 C 12,3 C 18,0 C 21,0 C 21,0 C 3,8 C 52 % 51 % 100 % 1021,7 hPa 0,0 l/m 4,3 km/h (1 Bft) W-SW 247 5 min 1,9 UV-I 7,3 C 21,0 C 6,8 km/h (2 Bft)
11.04.2011 12:45 17,4 C 12,3 C 18,0 C 21,2 C 21,2 C 3,8 C 53 % 51 % 100 % 1021,7 hPa 0,0 l/m 5,0 km/h (1 Bft) W-SW 247 5 min 1,9 UV-I 7,7 C 21,2 C 8,9 km/h (2 Bft)
11.04.2011 12:50 17,5 C 12,4 C 18,0 C 21,3 C 21,3 C 3,8 C 51 % 51 % 100 % 1021,7 hPa 0,0 l/m 6,1 km/h (2 Bft) S 180 5 min 1,9 UV-I 7,3 C 21,3 C 7,1 km/h (2 Bft)
11.04.2011 12:55 17,6 C 12,4 C 18,0 C 21,3 C 21,3 C 3,7 C 50 % 51 % 97 % 1021,3 hPa 0,0 l/m 7,6 km/h (2 Bft) SW 225 5 min 2,0 UV-I 7,1 C 21,3 C 12,6 km/h (3 Bft)
11.04.2011 13:00 17,8 C 12,4 C 18,0 C 21,3 C 21,3 C 3,5 C 50 % 51 % 92 % 1021,3 hPa 0,0 l/m 7,2 km/h (2 Bft) SW 225 5 min 2,0 UV-I 7,2 C 21,3 C 7,7 km/h (2 Bft)
11.04.2011 13:09 18,0 C 12,5 C 18,0 C 21,3 C 21,3 C 3,3 C 49 % 51 % 87 % 1021,3 hPa 0,0 l/m 8,2 km/h (2 Bft) N 0 9 min 2,1 UV-I 7,1 C 21,3 C 11,9 km/h (2 Bft)
11.04.2011 13:15 18,1 C 12,6 C 18,0 C 21,4 C 21,4 C 3,3 C 49 % 51 % 87 % 1020,6 hPa 0,0 l/m 8,9 km/h (2 Bft) O 90 6 min 2,0 UV-I 7,2 C 21,4 C 9,0 km/h (2 Bft)
11.04.2011 13:20 18,3 C 12,6 C 18,0 C 21,3 C 21,3 C 3,0 C 49 % 51 % 79 % 1020,6 hPa 0,0 l/m 8,0 km/h (2 Bft) SW 225 0 min 2,0 UV-I 7,4 C 21,3 C 7,7 km/h (2 Bft)
11.04.2011 13:25 18,3 C 12,7 C 18,0 C 21,3 C 21,3 C 3,0 C 49 % 51 % 79 % 1020,6 hPa 0,0 l/m 6,3 km/h (2 Bft) S 180 0 min 1,9 UV-I 7,4 C 21,3 C 2,9 km/h (1 Bft)
11.04.2011 13:30 18,5 C 12,7 C 18,0 C 21,8 C 21,8 C 3,3 C 48 % 51 % 87 % 1020,6 hPa 0,0 l/m 4,8 km/h (1 Bft) SW 225 5 min 1,9 UV-I 7,3 C 21,8 C 8,9 km/h (2 Bft)
11.04.2011 13:35 18,6 C 12,6 C 18,0 C 21,9 C 21,9 C 3,3 C 47 % 51 % 87 % 1020,4 hPa 0,0 l/m 6,1 km/h (2 Bft) W-SW 247 5 min 2,0 UV-I 7,1 C 21,9 C 10,1 km/h (2 Bft)
11.04.2011 13:40 18,5 C 12,8 C 18,0 C 21,8 C 21,8 C 3,3 C 47 % 51 % 87 % 1020,4 hPa 0,0 l/m 7,9 km/h (2 Bft) S 180 5 min 2,0 UV-I 7,0 C 21,8 C 13,7 km/h (3 Bft)
11.04.2011 13:45 18,5 C 12,8 C 18,0 C 21,5 C 21,5 C 3,0 C 46 % 51 % 79 % 1020,4 hPa 0,0 l/m 8,2 km/h (2 Bft) SW 225 0 min 2,0 UV-I 6,7 C 21,5 C 9,5 km/h (2 Bft)
11.04.2011 13:50 18,6 C 12,9 C 20,0 C 21,5 C 21,5 C 2,9 C 47 % 44 % 76 % 1020,4 hPa 0,0 l/m 9,2 km/h (2 Bft) S-SW 202 0 min 2,0 UV-I 7,1 C 21,5 C 12,2 km/h (2 Bft)
11.04.2011 13:55 18,6 C 12,9 C 20,0 C 21,4 C 21,4 C 2,8 C 47 % 45 % 74 % 1020,2 hPa 0,0 l/m 8,5 km/h (2 Bft) S-SW 202 0 min 1,9 UV-I 7,1 C 21,4 C 3,1 km/h (1 Bft)
11.04.2011 14:00 18,8 C 12,9 C 20,1 C 21,8 C 21,8 C 3,0 C 48 % 45 % 79 % 1020,2 hPa 0,0 l/m 7,2 km/h (2 Bft) SW 225 0 min 1,9 UV-I 7,6 C 21,8 C 8,7 km/h (2 Bft)
11.04.2011 14:10 19,1 C 13,0 C 20,1 C 22,6 C 22,6 C 3,5 C 47 % 45 % 92 % 1020,2 hPa 0,0 l/m 6,4 km/h (2 Bft) N 0 10 min 2,0 UV-I 7,5 C 22,6 C 10,5 km/h (2 Bft)
11.04.2011 14:15 19,2 C 13,1 C 21,4 C 23,0 C 23,0 C 3,8 C 46 % 44 % 100 % 1019,6 hPa 0,0 l/m 4,7 km/h (1 Bft) SW 225 5 min 1,9 UV-I 7,3 C 23,0 C 7,6 km/h (2 Bft)
11.04.2011 14:20 19,3 C 13,1 C 21,4 C 23,2 C 23,2 C 3,9 C 46 % 42 % 100 % 1019,6 hPa 0,0 l/m 4,8 km/h (1 Bft) N-NO 22 5 min 1,9 UV-I 7,4 C 23,2 C 7,2 km/h (2 Bft)
11.04.2011 14:25 19,2 C 13,2 C 21,6 C 22,8 C 22,8 C 3,6 C 44 % 42 % 95 % 1019,6 hPa 0,0 l/m 6,6 km/h (2 Bft) SW 225 5 min 1,8 UV-I 6,7 C 22,8 C 7,4 km/h (2 Bft)
11.04.2011 14:30 19,2 C 13,2 C 21,6 C 22,6 C 22,6 C 3,4 C 45 % 42 % 89 % 1019,6 hPa 0,0 l/m 7,2 km/h (2 Bft) O 90 5 min 1,8 UV-I 7,0 C 22,6 C 9,3 km/h (2 Bft)
11.04.2011 14:35 19,5 C 13,2 C 21,6 C 22,7 C 22,7 C 3,2 C 44 % 42 % 84 % 1019,7 hPa 0,0 l/m 6,8 km/h (2 Bft) SW 225 0 min 1,8 UV-I 6,9 C 22,7 C 10,3 km/h (2 Bft)
11.04.2011 14:40 19,6 C 13,3 C 21,8 C 22,6 C 22,6 C 3,0 C 45 % 39 % 79 % 1019,7 hPa 0,0 l/m 6,6 km/h (2 Bft) SW 225 0 min 1,8 UV-I 7,3 C 22,6 C 8,4 km/h (2 Bft)
11.04.2011 14:45 19,7 C 13,3 C 21,8 C 22,8 C 22,8 C 3,1 C 44 % 39 % 82 % 1019,7 hPa 0,0 l/m 5,6 km/h (1 Bft) S-SO 157 0 min 1,7 UV-I 7,1 C 22,8 C 2,6 km/h (1 Bft)
11.04.2011 14:50 19,7 C 13,4 C 21,8 C 23,1 C 23,1 C 3,4 C 43 % 39 % 89 % 1019,7 hPa 0,0 l/m 5,1 km/h (1 Bft) S-SW 202 5 min 1,7 UV-I 6,8 C 23,1 C 8,9 km/h (2 Bft)
11.04.2011 14:55 19,9 C 13,4 C 21,8 C 23,0 C 23,0 C 3,1 C 43 % 39 % 82 % 1019,4 hPa 0,0 l/m 6,3 km/h (2 Bft) SW 225 0 min 1,6 UV-I 6,9 C 23,0 C 7,1 km/h (2 Bft)
11.04.2011 15:00 19,8 C 13,5 C 21,8 C 22,8 C 22,8 C 3,0 C 43 % 39 % 79 % 1019,4 hPa 0,0 l/m 8,0 km/h (2 Bft) S-SW 202 0 min 1,6 UV-I 6,9 C 22,8 C 11,1 km/h (2 Bft)
11.04.2011 15:09 19,8 C 13,5 C 21,8 C 22,5 C 22,5 C 2,7 C 43 % 39 % 71 % 1019,4 hPa 0,0 l/m 7,2 km/h (2 Bft) N 0 0 min 1,4 UV-I 6,9 C 22,5 C 11,7 km/h (2 Bft)
11.04.2011 15:15 19,9 C 13,6 C 22,2 C 22,6 C 22,6 C 2,7 C 42 % 39 % 71 % 1018,8 hPa 0,0 l/m 6,8 km/h (2 Bft) W-SW 247 0 min 1,4 UV-I 6,6 C 22,6 C 12,4 km/h (3 Bft)
11.04.2011 15:20 19,9 C 13,6 C 22,3 C 22,6 C 22,6 C 2,7 C 42 % 39 % 71 % 1018,8 hPa 0,0 l/m 7,6 km/h (2 Bft) SW 225 0 min 1,4 UV-I 6,6 C 22,6 C 11,1 km/h (2 Bft)
11.04.2011 15:25 20,1 C 13,7 C 22,2 C 22,7 C 22,7 C 2,6 C 42 % 39 % 68 % 1018,8 hPa 0,0 l/m 7,7 km/h (2 Bft) S-SW 202 0 min 1,3 UV-I 6,8 C 22,7 C 12,2 km/h (2 Bft)
11.04.2011 15:30 20,3 C 13,7 C 22,2 C 22,7 C 22,7 C 2,4 C 41 % 39 % 63 % 1018,8 hPa 0,0 l/m 7,4 km/h (2 Bft) S-SW 202 0 min 1,3 UV-I 6,6 C 22,7 C 8,7 km/h (2 Bft)
11.04.2011 15:35 20,2 C 13,8 C 22,2 C 22,7 C 22,7 C 2,5 C 41 % 39 % 66 % 1018,7 hPa 0,0 l/m 8,0 km/h (2 Bft) SW 225 0 min 1,1 UV-I 6,5 C 22,7 C 10,6 km/h (2 Bft)
11.04.2011 15:40 20,3 C 13,8 C 22,2 C 22,4 C 22,4 C 2,1 C 40 % 39 % 55 % 1018,7 hPa 0,0 l/m 8,2 km/h (2 Bft) SW 225 0 min 1,1 UV-I 6,3 C 22,4 C 11,9 km/h (2 Bft)
11.04.2011 15:45 20,3 C 13,8 C 22,2 C 22,0 C 22,0 C 1,7 C 41 % 39 % 45 % 1018,7 hPa 0,0 l/m 9,2 km/h (2 Bft) SW 225 0 min 1,0 UV-I 6,6 C 22,0 C 9,8 km/h (2 Bft)
11.04.2011 15:50 20,3 C 13,9 C 22,2 C 22,0 C 22,0 C 1,7 C 40 % 39 % 45 % 1018,7 hPa 0,0 l/m 9,2 km/h (2 Bft) S 180 0 min 1,0 UV-I 6,3 C 22,0 C 8,9 km/h (2 Bft)
11.04.2011 15:55 20,3 C 13,9 C 22,2 C 22,0 C 22,0 C 1,7 C 40 % 39 % 45 % 1018,2 hPa 0,0 l/m 8,4 km/h (2 Bft) W-SW 247 0 min 1,0 UV-I 6,3 C 22,0 C 7,1 km/h (2 Bft)
11.04.2011 16:00 20,3 C 13,9 C 22,2 C 22,1 C 22,1 C 1,8 C 40 % 39 % 47 % 1018,2 hPa 0,0 l/m 9,0 km/h (2 Bft) SW 225 0 min 1,0 UV-I 6,3 C 22,1 C 13,8 km/h (3 Bft)
11.04.2011 16:10 20,4 C 14,0 C 22,2 C 22,0 C 22,0 C 1,6 C 40 % 39 % 42 % 1018,2 hPa 0,0 l/m 10,0 km/h (2 Bft) N 0 0 min 0,9 UV-I 6,3 C 22,0 C 11,1 km/h (2 Bft)
11.04.2011 16:15 20,4 C 14,0 C 22,2 C 22,0 C 22,0 C 1,6 C 41 % 39 % 42 % 1017,9 hPa 0,0 l/m 9,3 km/h (2 Bft) W-SW 247 0 min 0,8 UV-I 6,7 C 22,0 C 9,0 km/h (2 Bft)
11.04.2011 16:20 20,5 C 14,1 C 22,2 C 22,1 C 22,1 C 1,6 C 41 % 39 % 42 % 1017,9 hPa 0,0 l/m 9,2 km/h (2 Bft) SW 225 0 min 0,8 UV-I 6,8 C 22,1 C 10,0 km/h (2 Bft)
11.04.2011 16:25 20,5 C 14,1 C 22,2 C 22,2 C 22,2 C 1,7 C 40 % 39 % 45 % 1017,9 hPa 0,0 l/m 8,7 km/h (2 Bft) SW 225 0 min 0,8 UV-I 6,4 C 22,2 C 12,9 km/h (3 Bft)
11.04.2011 16:30 20,4 C 14,1 C 22,2 C 22,1 C 22,1 C 1,7 C 40 % 39 % 45 % 1017,9 hPa 0,0 l/m 8,9 km/h (2 Bft) S-SW 202 0 min 0,8 UV-I 6,3 C 22,1 C 9,8 km/h (2 Bft)
11.04.2011 16:35 20,5 C 14,1 C 22,2 C 22,0 C 22,0 C 1,5 C 41 % 39 % 39 % 1017,6 hPa 0,0 l/m 9,2 km/h (2 Bft) SW 225 0 min 0,7 UV-I 6,8 C 22,0 C 10,9 km/h (2 Bft)
11.04.2011 16:40 20,4 C 14,2 C 22,2 C 22,0 C 22,0 C 1,6 C 41 % 39 % 42 % 1017,6 hPa 0,0 l/m 8,7 km/h (2 Bft) S 180 0 min 0,7 UV-I 6,7 C 22,0 C 10,3 km/h (2 Bft)
11.04.2011 16:45 20,4 C 14,2 C 22,2 C 22,1 C 22,1 C 1,7 C 40 % 39 % 45 % 1017,6 hPa 0,0 l/m 7,6 km/h (2 Bft) SW 225 0 min 0,6 UV-I 6,3 C 22,1 C 9,2 km/h (2 Bft)
11.04.2011 16:50 20,4 C 14,2 C 22,2 C 21,9 C 21,9 C 1,5 C 41 % 39 % 39 % 1017,6 hPa 0,0 l/m 8,0 km/h (2 Bft) W-SW 247 0 min 0,6 UV-I 6,7 C 21,9 C 7,7 km/h (2 Bft)
11.04.2011 16:55 20,4 C 14,2 C 22,2 C 21,7 C 21,7 C 1,3 C 40 % 39 % 34 % 1017,1 hPa 0,0 l/m 10,5 km/h (2 Bft) S-SW 202 0 min 0,5 UV-I 6,3 C 21,7 C 11,9 km/h (2 Bft)
11.04.2011 17:00 20,5 C 14,3 C 22,2 C 21,7 C 21,7 C 1,2 C 41 % 39 % 32 % 1017,1 hPa 0,0 l/m 10,8 km/h (2 Bft) SW 225 0 min 0,5 UV-I 6,8 C 21,7 C 11,9 km/h (2 Bft)
11.04.2011 17:10 20,5 C 14,3 C 22,2 C 22,1 C 22,1 C 1,6 C 41 % 39 % 42 % 1017,1 hPa 0,0 l/m 7,9 km/h (2 Bft) N 0 0 min 0,5 UV-I 6,8 C 22,1 C 6,4 km/h (2 Bft)
11.04.2011 17:15 20,5 C 14,3 C 22,2 C 21,9 C 21,9 C 1,4 C 41 % 39 % 37 % 1016,9 hPa 0,0 l/m 8,4 km/h (2 Bft) SW 225 0 min 0,4 UV-I 6,8 C 21,9 C 9,7 km/h (2 Bft)
11.04.2011 17:20 20,4 C 14,3 C 22,2 C 21,5 C 21,5 C 1,1 C 41 % 39 % 29 % 1016,9 hPa 0,0 l/m 8,4 km/h (2 Bft) SW 225 0 min 0,4 UV-I 6,7 C 21,5 C 8,4 km/h (2 Bft)
11.04.2011 17:25 20,3 C 14,4 C 22,2 C 21,3 C 21,3 C 1,0 C 42 % 39 % 26 % 1016,9 hPa 0,0 l/m 9,0 km/h (2 Bft) S-SW 202 0 min 0,3 UV-I 7,0 C 21,3 C 9,7 km/h (2 Bft)
11.04.2011 17:30 20,4 C 14,4 C 22,2 C 21,3 C 21,3 C 0,9 C 42 % 39 % 24 % 1016,9 hPa 0,0 l/m 8,4 km/h (2 Bft) S 180 0 min 0,3 UV-I 7,1 C 21,3 C 8,9 km/h (2 Bft)
11.04.2011 17:35 20,5 C 14,4 C 22,2 C 21,6 C 21,6 C 1,1 C 42 % 39 % 29 % 1016,9 hPa 0,0 l/m 8,7 km/h (2 Bft) S-SW 202 0 min 0,2 UV-I 7,1 C 21,6 C 11,6 km/h (2 Bft)
11.04.2011 17:40 20,5 C 14,4 C 22,2 C 21,8 C 21,8 C 1,3 C 42 % 39 % 34 % 1016,9 hPa 0,0 l/m 8,9 km/h (2 Bft) W-SW 247 0 min 0,2 UV-I 7,1 C 21,8 C 11,9 km/h (2 Bft)
11.04.2011 17:45 20,5 C 14,5 C 21,1 C 22,0 C 22,0 C 1,5 C 43 % 43 % 39 % 1016,9 hPa 0,0 l/m 9,5 km/h (2 Bft) SW 225 0 min 0,2 UV-I 7,5 C 22,0 C 9,0 km/h (2 Bft)
11.04.2011 17:50 20,5 C 14,5 C 21,1 C 22,0 C 22,0 C 1,5 C 43 % 42 % 39 % 1016,9 hPa 0,0 l/m 9,8 km/h (2 Bft) S 180 0 min 0,2 UV-I 7,5 C 22,0 C 14,0 km/h (3 Bft)
11.04.2011 17:55 20,5 C 14,5 C 20,9 C 21,8 C 21,8 C 1,3 C 42 % 41 % 34 % 1016,6 hPa 0,0 l/m 9,2 km/h (2 Bft) SW 225 0 min 0,2 UV-I 7,1 C 21,8 C 9,0 km/h (2 Bft)
11.04.2011 18:00 20,3 C 14,5 C 20,7 C 21,5 C 21,5 C 1,2 C 42 % 43 % 32 % 1016,6 hPa 0,0 l/m 8,7 km/h (2 Bft) SW 225 0 min 0,2 UV-I 7,0 C 21,5 C 8,7 km/h (2 Bft)
11.04.2011 18:10 20,2 C 14,5 C 20,4 C 21,2 C 21,2 C 1,0 C 43 % 43 % 26 % 1016,6 hPa 0,0 l/m 7,1 km/h (2 Bft) N 0 0 min 0,1 UV-I 7,2 C 21,2 C 6,1 km/h (2 Bft)
11.04.2011 18:15 20,0 C 14,5 C 20,1 C 20,8 C 20,8 C 0,8 C 44 % 43 % 21 % 1016,1 hPa 0,0 l/m 7,2 km/h (2 Bft) SW 225 0 min 0,1 UV-I 7,4 C 20,8 C 6,1 km/h (2 Bft)
11.04.2011 18:20 19,9 C 14,5 C 19,9 C 20,5 C 20,5 C 0,6 C 44 % 44 % 16 % 1016,1 hPa 0,0 l/m 7,1 km/h (2 Bft) W 270 0 min 0,1 UV-I 7,3 C 20,5 C 6,3 km/h (2 Bft)
11.04.2011 18:25 19,6 C 14,5 C 19,7 C 19,9 C 19,9 C 0,3 C 45 % 45 % 8 % 1016,1 hPa 0,0 l/m 6,8 km/h (2 Bft) SW 225 0 min 0,0 UV-I 7,3 C 19,9 C 4,8 km/h (1 Bft)
11.04.2011 18:30 19,6 C 14,6 C 19,5 C 19,7 C 19,7 C 0,1 C 46 % 46 % 3 % 1016,1 hPa 0,0 l/m 5,8 km/h (2 Bft) SW 225 0 min 0,0 UV-I 7,7 C 19,7 C 6,9 km/h (2 Bft)
11.04.2011 18:35 19,5 C 14,7 C 19,3 C 19,5 C 19,5 C 0,0 C 46 % 47 % 0 % 1016,0 hPa 0,0 l/m 5,3 km/h (1 Bft) S-SW 202 0 min 0,0 UV-I 7,6 C 19,5 C 5,5 km/h (1 Bft)
11.04.2011 18:40 19,4 C 14,7 C 19,3 C 19,5 C 19,5 C 0,1 C 46 % 47 % 3 % 1016,0 hPa 0,0 l/m 5,6 km/h (1 Bft) SW 225 0 min 0,0 UV-I 7,5 C 19,5 C 7,9 km/h (2 Bft)
11.04.2011 18:45 19,2 C 14,7 C 19,2 C 19,5 C 19,5 C 0,3 C 47 % 48 % 8 % 1016,0 hPa 0,0 l/m 5,6 km/h (1 Bft) S-SW 202 0 min 0,0 UV-I 7,6 C 19,5 C 3,7 km/h (1 Bft)
11.04.2011 18:50 19,1 C 14,7 C 19,0 C 19,4 C 19,4 C 0,3 C 47 % 48 % 8 % 1016,0 hPa 0,0 l/m 5,8 km/h (2 Bft) S-SW 202 0 min 0,0 UV-I 7,5 C 19,4 C 7,6 km/h (2 Bft)
11.04.2011 18:55 19,0 C 14,7 C 18,8 C 19,2 C 19,2 C 0,2 C 47 % 49 % 5 % 1015,9 hPa 0,0 l/m 5,8 km/h (2 Bft) SW 225 0 min 0,0 UV-I 7,4 C 19,2 C 5,3 km/h (1 Bft)
11.04.2011 19:00 18,9 C 14,7 C 18,7 C 19,1 C 19,1 C 0,2 C 48 % 49 % 5 % 1015,9 hPa 0,0 l/m 5,5 km/h (1 Bft) SW 225 0 min 0,0 UV-I 7,6 C 19,1 C 4,8 km/h (1 Bft)
11.04.2011 19:09 18,8 C 14,7 C 18,5 C 18,9 C 18,9 C 0,1 C 48 % 50 % 3 % 1015,9 hPa 0,0 l/m 2,6 km/h (1 Bft) N 0 0 min 0,0 UV-I 7,6 C 18,9 C 1,9 km/h (1 Bft)
11.04.2011 19:15 18,8 C 14,7 C 18,7 C 19,0 C 19,0 C 0,2 C 48 % 50 % 5 % 1015,7 hPa 0,0 l/m 2,1 km/h (1 Bft) S-SO 157 0 min 0,0 UV-I 7,6 C 19,0 C 4,0 km/h (1 Bft)
11.04.2011 19:20 18,9 C 14,8 C 18,7 C 19,0 C 19,0 C 0,1 C 48 % 50 % 3 % 1015,7 hPa 0,0 l/m 2,1 km/h (1 Bft) SW 225 0 min 0,0 UV-I 7,6 C 19,0 C 1,6 km/h (1 Bft)
11.04.2011 19:25 18,6 C 14,8 C 18,5 C 19,0 C 19,0 C 0,4 C 49 % 51 % 11 % 1015,7 hPa 0,0 l/m 1,9 km/h (1 Bft) SW 225 0 min 0,0 UV-I 7,7 C 19,0 C 2,9 km/h (1 Bft)
11.04.2011 19:30 18,6 C 14,8 C 18,4 C 18,8 C 18,8 C 0,2 C 49 % 52 % 5 % 1015,7 hPa 0,0 l/m 1,9 km/h (1 Bft) S-SW 202 0 min 0,0 UV-I 7,7 C 18,8 C 1,8 km/h (1 Bft)
11.04.2011 19:35 18,5 C 14,8 C 18,0 C 18,5 C 18,5 C 0,0 C 49 % 51 % 0 % 1015,6 hPa 0,0 l/m 2,3 km/h (1 Bft) S-SW 202 0 min 0,0 UV-I 7,6 C 18,5 C 2,4 km/h (1 Bft)
11.04.2011 19:40 18,3 C 14,8 C 18,0 C 18,3 C 18,3 C 0,0 C 49 % 53 % 0 % 1015,6 hPa 0,0 l/m 2,1 km/h (1 Bft) S 180 0 min 0,0 UV-I 7,4 C 18,3 C 2,1 km/h (1 Bft)
11.04.2011 19:45 18,1 C 14,8 C 17,6 C 18,0 C 17,9 C 0,0 C 50 % 54 % 0 % 1015,6 hPa 0,0 l/m 1,6 km/h (1 Bft) SW 225 0 min 0,0 UV-I 7,5 C 17,9 C 2,7 km/h (1 Bft)
11.04.2011 19:50 17,9 C 14,8 C 17,3 C 17,8 C 17,6 C 0,0 C 50 % 54 % 0 % 1015,6 hPa 0,0 l/m 1,1 km/h (1 Bft) S 180 0 min 0,0 UV-I 7,3 C 17,6 C 0,0 km/h (0 Bft)
11.04.2011 19:55 17,6 C 14,8 C 16,9 C 17,4 C 16,9 C 0,0 C 51 % 54 % 0 % 1015,4 hPa 0,0 l/m 0,6 km/h (0 Bft) SW 225 0 min 0,0 UV-I 7,3 C 16,9 C 1,6 km/h (1 Bft)
11.04.2011 20:00 17,5 C 14,8 C 16,6 C 17,2 C 16,5 C 0,0 C 51 % 55 % 0 % 1015,4 hPa 0,0 l/m 0,8 km/h (0 Bft) S-SW 202 0 min 0,0 UV-I 7,3 C 16,5 C 0,0 km/h (0 Bft)
11.04.2011 20:10 16,9 C 14,7 C 15,8 C 16,4 C 15,5 C 0,0 C 53 % 57 % 0 % 1015,4 hPa 0,0 l/m 0,2 km/h (0 Bft) N 0 0 min 0,0 UV-I 7,3 C 15,5 C 0,0 km/h (0 Bft)
11.04.2011 20:15 16,7 C 14,7 C 15,5 C 16,1 C 15,0 C 0,0 C 53 % 58 % 0 % 1015,7 hPa 0,0 l/m 0,0 km/h (0 Bft) SO 135 0 min 0,0 UV-I 7,1 C 15,0 C 0,0 km/h (0 Bft)
11.04.2011 20:20 16,5 C 14,8 C 15,2 C 15,9 C 14,6 C 0,0 C 53 % 60 % 0 % 1015,7 hPa 0,0 l/m 0,0 km/h (0 Bft) O-NO 67 0 min 0,0 UV-I 6,9 C 14,6 C 0,0 km/h (0 Bft)
11.04.2011 20:25 16,1 C 14,8 C 14,7 C 15,5 C 14,2 C 0,0 C 55 % 60 % 0 % 1015,7 hPa 0,0 l/m 0,0 km/h (0 Bft) O-NO 67 0 min 0,0 UV-I 7,1 C 14,2 C 0,0 km/h (0 Bft)
11.04.2011 20:30 16,0 C 14,8 C 14,5 C 15,3 C 13,9 C 0,0 C 55 % 62 % 0 % 1015,7 hPa 0,0 l/m 0,0 km/h (0 Bft) O-NO 67 0 min 0,0 UV-I 7,0 C 13,9 C 0,0 km/h (0 Bft)
11.04.2011 20:35 15,7 C 14,8 C 14,1 C 15,0 C 13,5 C 0,0 C 56 % 63 % 0 % 1015,8 hPa 0,0 l/m 0,0 km/h (0 Bft) W-SW 247 0 min 0,0 UV-I 6,9 C 13,5 C 0,0 km/h (0 Bft)
11.04.2011 20:40 15,5 C 14,8 C 14,0 C 14,7 C 13,2 C 0,0 C 56 % 63 % 0 % 1015,8 hPa 0,0 l/m 0,0 km/h (0 Bft) W-SW 247 0 min 0,0 UV-I 6,8 C 13,2 C 0,0 km/h (0 Bft)
11.04.2011 20:45 15,3 C 14,8 C 13,7 C 14,5 C 12,9 C 0,0 C 57 % 64 % 0 % 1015,8 hPa 0,0 l/m 0,0 km/h (0 Bft) W-SW 247 0 min 0,0 UV-I 6,8 C 12,9 C 0,0 km/h (0 Bft)
11.04.2011 20:50 15,2 C 14,8 C 13,5 C 14,4 C 12,7 C 0,0 C 59 % 66 % 0 % 1015,8 hPa 0,0 l/m 0,0 km/h (0 Bft) SW 225 0 min 0,0 UV-I 7,2 C 12,7 C 0,0 km/h (0 Bft)
11.04.2011 20:55 15,0 C 14,8 C 13,2 C 14,0 C 12,1 C 0,0 C 59 % 65 % 0 % 1015,2 hPa 0,0 l/m 0,0 km/h (0 Bft) S-SW 202 0 min 0,0 UV-I 7,1 C 12,1 C 0,0 km/h (0 Bft)
11.04.2011 21:00 14,9 C 14,8 C 13,0 C 13,9 C 12,0 C 0,0 C 59 % 66 % 0 % 1015,2 hPa 0,0 l/m 0,0 km/h (0 Bft) O-NO 67 0 min 0,0 UV-I 7,0 C 12,0 C 0,0 km/h (0 Bft)
11.04.2011 21:10 14,4 C 14,9 C 12,7 C 13,5 C 11,6 C 0,0 C 61 % 67 % 0 % 1015,2 hPa 0,0 l/m 0,0 km/h (0 Bft) N 0 0 min 0,0 UV-I 7,0 C 11,6 C 0,0 km/h (0 Bft)
11.04.2011 21:15 14,0 C 14,9 C 12,6 C 13,1 C 11,4 C 0,0 C 62 % 67 % 0 % 1015,1 hPa 0,0 l/m 0,0 km/h (0 Bft) O-NO 67 0 min 0,0 UV-I 6,8 C 11,4 C 0,0 km/h (0 Bft)
11.04.2011 21:20 14,0 C 14,9 C 12,4 C 13,1 C 11,4 C 0,0 C 63 % 68 % 0 % 1015,1 hPa 0,0 l/m 0,0 km/h (0 Bft) NO 45 0 min 0,0 UV-I 7,1 C 11,4 C 0,0 km/h (0 Bft)
11.04.2011 21:25 13,7 C 14,9 C 12,2 C 12,9 C 11,2 C 0,0 C 63 % 69 % 0 % 1015,1 hPa 0,0 l/m 0,0 km/h (0 Bft) NO 45 0 min 0,0 UV-I 6,8 C 11,2 C 0,0 km/h (0 Bft)
11.04.2011 21:30 13,7 C 14,7 C 12,1 C 12,8 C 11,1 C 0,0 C 64 % 69 % 0 % 1015,1 hPa 0,0 l/m 0,0 km/h (0 Bft) NO 45 0 min 0,0 UV-I 7,0 C 11,1 C 0,0 km/h (0 Bft)
11.04.2011 21:35 13,7 C 14,7 C 12,0 C 12,8 C 11,1 C 0,0 C 64 % 70 % 0 % 1014,9 hPa 0,0 l/m 0,0 km/h (0 Bft) O-NO 67 0 min 0,0 UV-I 7,0 C 11,1 C 0,0 km/h (0 Bft)
11.04.2011 21:40 13,5 C 14,7 C 11,9 C 12,7 C 11,2 C 0,0 C 64 % 70 % 0 % 1014,9 hPa 0,0 l/m 0,0 km/h (0 Bft) O-NO 67 0 min 0,0 UV-I 6,8 C 11,2 C 0,0 km/h (0 Bft)
11.04.2011 21:45 13,5 C 14,8 C 11,7 C 12,7 C 11,0 C 0,0 C 65 % 71 % 0 % 1014,9 hPa 0,0 l/m 0,0 km/h (0 Bft) SW 225 0 min 0,0 UV-I 7,1 C 11,0 C 0,0 km/h (0 Bft)
11.04.2011 21:50 13,3 C 14,8 C 11,6 C 12,5 C 10,8 C 0,0 C 65 % 70 % 0 % 1014,9 hPa 0,0 l/m 0,0 km/h (0 Bft) NO 45 0 min 0,0 UV-I 6,9 C 10,8 C 0,0 km/h (0 Bft)
11.04.2011 21:55 13,2 C 14,8 C 11,5 C 12,3 C 10,6 C 0,0 C 65 % 71 % 0 % 1015,0 hPa 0,0 l/m 0,0 km/h (0 Bft) NO 45 0 min 0,0 UV-I 6,8 C 10,6 C 0,0 km/h (0 Bft)
11.04.2011 22:00 13,1 C 14,8 C 11,4 C 12,3 C 10,6 C 0,0 C 66 % 71 % 0 % 1015,0 hPa 0,0 l/m 0,0 km/h (0 Bft) NO 45 0 min 0,0 UV-I 6,9 C 10,6 C 0,0 km/h (0 Bft)
11.04.2011 22:10 12,9 C 14,7 C 11,1 C 12,0 C 10,2 C 0,0 C 66 % 72 % 0 % 1015,0 hPa 0,0 l/m 0,0 km/h (0 Bft) N 0 0 min 0,0 UV-I 6,7 C 10,2 C 0,0 km/h (0 Bft)
11.04.2011 22:15 12,8 C 14,7 C 11,0 C 11,9 C 10,1 C 0,0 C 66 % 73 % 0 % 1014,2 hPa 0,0 l/m 0,0 km/h (0 Bft) NW 315 0 min 0,0 UV-I 6,6 C 10,1 C 0,0 km/h (0 Bft)
11.04.2011 22:20 12,7 C 14,7 C 10,9 C 11,8 C 10,0 C 0,0 C 66 % 73 % 0 % 1014,2 hPa 0,0 l/m 0,0 km/h (0 Bft) N-NO 22 0 min 0,0 UV-I 6,5 C 10,0 C 0,0 km/h (0 Bft)
11.04.2011 22:25 12,7 C 14,7 C 10,9 C 11,8 C 10,0 C 0,0 C 66 % 73 % 0 % 1014,2 hPa 0,0 l/m 0,0 km/h (0 Bft) NO 45 0 min 0,0 UV-I 6,5 C 10,0 C 0,0 km/h (0 Bft)
11.04.2011 22:30 12,5 C 14,7 C 10,8 C 11,6 C 9,9 C 0,0 C 66 % 73 % 0 % 1014,2 hPa 0,0 l/m 0,0 km/h (0 Bft) NO 45 0 min 0,0 UV-I 6,3 C 9,9 C 0,0 km/h (0 Bft)
11.04.2011 22:35 12,4 C 14,7 C 10,7 C 11,6 C 9,9 C 0,0 C 66 % 73 % 0 % 1014,4 hPa 0,0 l/m 0,0 km/h (0 Bft) NO 45 0 min 0,0 UV-I 6,2 C 9,9 C 0,0 km/h (0 Bft)
11.04.2011 22:40 12,3 C 14,7 C 10,6 C 11,5 C 9,8 C 0,0 C 67 % 73 % 0 % 1014,4 hPa 0,0 l/m 0,0 km/h (0 Bft) NO 45 0 min 0,0 UV-I 6,4 C 9,8 C 0,0 km/h (0 Bft)
11.04.2011 22:45 12,3 C 14,6 C 10,7 C 11,5 C 9,8 C 0,0 C 67 % 73 % 0 % 1014,4 hPa 0,0 l/m 0,0 km/h (0 Bft) O-NO 67 0 min 0,0 UV-I 6,4 C 9,8 C 0,0 km/h (0 Bft)
11.04.2011 22:50 12,1 C 14,6 C 10,5 C 11,4 C 10,0 C 0,0 C 68 % 73 % 0 % 1014,4 hPa 0,0 l/m 0,0 km/h (0 Bft) O-NO 67 0 min 0,0 UV-I 6,4 C 10,0 C 0,0 km/h (0 Bft)
11.04.2011 22:55 12,0 C 14,6 C 10,5 C 11,3 C 10,0 C 0,0 C 68 % 73 % 0 % 1014,1 hPa 0,0 l/m 0,0 km/h (0 Bft) O-NO 67 0 min 0,0 UV-I 6,3 C 10,0 C 0,0 km/h (0 Bft)
11.04.2011 23:00 12,0 C 14,6 C 10,5 C 11,3 C 10,0 C 0,0 C 68 % 73 % 0 % 1014,1 hPa 0,0 l/m 0,2 km/h (0 Bft) NO 45 0 min 0,0 UV-I 6,3 C 10,0 C 2,3 km/h (1 Bft)
11.04.2011 23:09 12,0 C 14,6 C 10,4 C 11,4 C 10,1 C 0,0 C 68 % 74 % 0 % 1014,1 hPa 0,0 l/m 0,5 km/h (0 Bft) N 0 0 min 0,0 UV-I 6,3 C 10,1 C 0,0 km/h (0 Bft)
11.04.2011 23:15 12,0 C 14,6 C 10,4 C 11,3 C 10,0 C 0,0 C 68 % 74 % 0 % 1014,2 hPa 0,0 l/m 0,2 km/h (0 Bft) NO 45 0 min 0,0 UV-I 6,3 C 10,0 C 2,3 km/h (1 Bft)
11.04.2011 23:20 12,0 C 14,6 C 10,4 C 11,4 C 10,2 C 0,0 C 68 % 74 % 0 % 1014,2 hPa 0,0 l/m 0,5 km/h (0 Bft) O-NO 67 0 min 0,0 UV-I 6,3 C 10,2 C 0,0 km/h (0 Bft)
11.04.2011 23:25 12,0 C 14,5 C 10,7 C 11,4 C 10,3 C 0,0 C 68 % 74 % 0 % 1014,2 hPa 0,0 l/m 1,0 km/h (0 Bft) NO 45 0 min 0,0 UV-I 6,3 C 10,3 C 0,0 km/h (0 Bft)
11.04.2011 23:30 11,9 C 14,5 C 10,5 C 11,4 C 10,3 C 0,0 C 68 % 74 % 0 % 1014,2 hPa 0,0 l/m 0,5 km/h (0 Bft) NO 45 0 min 0,0 UV-I 6,2 C 10,3 C 2,1 km/h (1 Bft)
11.04.2011 23:35 11,9 C 14,5 C 10,5 C 11,4 C 10,4 C 0,0 C 68 % 74 % 0 % 1013,9 hPa 0,0 l/m 1,3 km/h (1 Bft) O-NO 67 0 min 0,0 UV-I 6,2 C 10,4 C 2,1 km/h (1 Bft)
11.04.2011 23:40 11,9 C 14,5 C 10,4 C 11,4 C 10,4 C 0,0 C 68 % 74 % 0 % 1013,9 hPa 0,0 l/m 1,4 km/h (1 Bft) N-NO 22 0 min 0,0 UV-I 6,2 C 10,4 C 2,4 km/h (1 Bft)
11.04.2011 23:45 11,9 C 14,4 C 10,5 C 11,4 C 10,5 C 0,0 C 68 % 74 % 0 % 1013,9 hPa 0,0 l/m 0,6 km/h (0 Bft) NO 45 0 min 0,0 UV-I 6,2 C 10,5 C 1,9 km/h (1 Bft)
11.04.2011 23:50 12,0 C 14,4 C 10,6 C 11,5 C 10,6 C 0,0 C 68 % 74 % 0 % 1013,9 hPa 0,0 l/m 0,8 km/h (0 Bft) N-NO 22 0 min 0,0 UV-I 6,3 C 10,6 C 0,0 km/h (0 Bft)
11.04.2011 23:55 12,0 C 14,4 C 10,8 C 11,6 C 10,7 C 0,0 C 68 % 73 % 0 % 1013,7 hPa 0,0 l/m 0,5 km/h (0 Bft) O-NO 67 0 min 0,0 UV-I 6,3 C 10,7 C 0,0 km/h (0 Bft)
_ Min-Zeit 06:35 08:55 06:25 06:30 04:20 00:00 15:40 14:40 00:00 23:55 - 00:00 - - - 00:00 06:30 04:20 00:00
Minimum _ 4,6 C 11,6 C 3,6 C 3,8 C 2,0 C 0,0 C 40 % 39 % 0 % 1013,7 hPa - 0,0 km/h (0 Bft) - - - 0,0 UV-I 1,9 C 2,0 C 0,0 km/h (0 Bft)
_ Max-Zeit 16:20 21:10 15:20 14:20 14:20 09:00 05:40 07:35 08:50 00:35 00:00 17:00 - - 10:10 13:09 12:45 14:20 12:25
Maximum _ 20,5 C 14,9 C 22,3 C 23,2 C 23,2 C 4,7 C 83 % 88 % 100 % 1024,6 hPa 0,0 l/m 10,8 km/h
SW (2 Bft)
- - 10 min 2,1 UV-I 7,7 C 23,2 C 18,3 km/h
SW (3 Bft)
Durchschnitt _ 12,5 C 13,3 C 12,0 C 13,2 C 12,3 C 1,1 C 64 % 67 % 29 % 1020,4 hPa #0,0 l/m 2,8 km/h (1 Bft) SW - #3:30 h 1,0 UV-I 5,3 C 12,3 C 3,6 km/h (1 Bft)
2013 www.wetterstation-wechselburg.de